When you browse on this site, cookies collect data to enhance your experience and personalize the content and advertising you see.
Visit our Privacy Policy to learn more. By continuing to use the site, you agree to this use of cookies and data.
  • In United Kingdom
  • List of Countries
  • For 7 days
  • Water Temperature
  • Satellite Maps
  • Weather Map
  • Weather Widgets
  • user-avatar
    Login

    Hourly Weather Lankaran

    Today, 12 December, Wednesday

    Time Temperature Precipitation Wind Pressure Humidity
    00:00 +3°C° 0 mm 4 mps 631 mmHg 50%
    01:00 +3°C° 0 mm 4 mps 631 mmHg 49%
    02:00 +3°C° 0 mm 4 mps 631 mmHg 48%
    03:00 +3°C° 0 mm 4 mps 631 mmHg 49%
    04:00 +1°C° 0 mm 4 mps 631 mmHg 50%
    05:00 +2°C° 0 mm 3 mps 631 mmHg 50%
    06:00 +2°C° 0 mm 3 mps 631 mmHg 51%
    07:00 +3°C° 0 mm 3 mps 632 mmHg 49%
    08:00 +4°C° 0 mm 3 mps 632 mmHg 46%
    09:00 +7°C° 0 mm 3 mps 632 mmHg 43%
    10:00 +7°C° 0 mm 4 mps 632 mmHg 40%
    11:00 +8°C° 0 mm 4 mps 632 mmHg 36%
    12:00 +10°C° 0 mm 5 mps 632 mmHg 33%
    13:00 +9°C° 0 mm 5 mps 631 mmHg 33%
    14:00 +9°C° 0 mm 5 mps 631 mmHg 34%
    15:00 +9°C° 0 mm 5 mps 630 mmHg 35%
    16:00 +8°C° 0 mm 5 mps 630 mmHg 37%
    17:00 +6°C° 0 mm 5 mps 630 mmHg 39%
    18:00 +5°C° 0 mm 5 mps 629 mmHg 42%
    19:00 +5°C° 0 mm 5 mps 629 mmHg 41%
    20:00 +5°C° 0 mm 5 mps 629 mmHg 40%
    21:00 +3°C° 0 mm 5 mps 629 mmHg 39%
    22:00 +4°C° 0 mm 4 mps 629 mmHg 38%
    23:00 +4°C° 0 mm 4 mps 629 mmHg 38%

    Tomorrow, 13 December, Thursday

    Time Temperature Precipitation Wind Pressure Humidity
    00:00 +3°C° 0 mm 4 mps 629 mmHg 38%
    01:00 +3°C° 0 mm 4 mps 629 mmHg 39%
    02:00 +3°C° 0 mm 4 mps 629 mmHg 40%
    03:00 +3°C° 0 mm 4 mps 629 mmHg 41%
    04:00 +3°C° 0 mm 4 mps 629 mmHg 43%
    05:00 +1°C° 0 mm 4 mps 629 mmHg 45%
    06:00 +1°C° 0 mm 4 mps 629 mmHg 48%
    07:00 +3°C° 0 mm 4 mps 629 mmHg 46%
    08:00 +5°C° 0 mm 4 mps 630 mmHg 45%
    09:00 +6°C° 0 mm 4 mps 630 mmHg 43%
    10:00 +7°C° 0 mm 5 mps 630 mmHg 43%
    11:00 +8°C° 0 mm 6 mps 631 mmHg 42%
    12:00 +9°C° 0 mm 7 mps 631 mmHg 42%
    13:00 +9°C° 0 mm 7 mps 631 mmHg 44%
    14:00 +9°C° 0 mm 7 mps 631 mmHg 46%
    15:00 +8°C° 0 mm 7 mps 632 mmHg 48%
    16:00 +7°C° 0 mm 6 mps 632 mmHg 55%
    17:00 +5°C° 0 mm 5 mps 632 mmHg 63%
    18:00 +3°C° 0 mm 5 mps 632 mmHg 70%
    19:00 +3°C° 0 mm 4 mps 633 mmHg 74%
    20:00 +3°C° 0 mm 4 mps 633 mmHg 78%
    21:00 +1°C° 0 mm 4 mps 633 mmHg 82%
    22:00 +1°C° 0 mm 4 mps 634 mmHg 83%
    23:00 +2°C° 0 mm 3 mps 634 mmHg 85%

    Day after tomorrow, 14 December, Friday

    Time Temperature Precipitation Wind Pressure Humidity
    00:00 +1°C° 0 mm 3 mps 634 mmHg 87%
    01:00 +1°C° 0 mm 3 mps 635 mmHg 87%
    02:00 +1°C° 0 mm 3 mps 635 mmHg 88%
    03:00 +2°C° 0 mm 2 mps 635 mmHg 89%
    04:00 +1°C° 0 mm 2 mps 635 mmHg 89%
    05:00 +1°C° 0 mm 2 mps 635 mmHg 90%
    06:00 +1°C° 0 mm 2 mps 635 mmHg 90%
    07:00 +2°C° 0 mm 2 mps 636 mmHg 86%
    08:00 +2°C° 0 mm 2 mps 637 mmHg 82%
    09:00 +3°C° 0 mm 2 mps 637 mmHg 78%
    10:00 +3°C° 0 mm 3 mps 637 mmHg 74%
    11:00 +3°C° 0 mm 3 mps 637 mmHg 70%
    12:00 +4°C° 0 mm 3 mps 637 mmHg 66%
    13:00 +4°C° 0.1 mm 3 mps 636 mmHg 67%
    14:00 +4°C° 0.1 mm 3 mps 636 mmHg 69%
    15:00 +3°C° 0.1 mm 3 mps 636 mmHg 71%
    16:00 +3°C° 0.1 mm 3 mps 636 mmHg 76%
    17:00 +2°C° 0.1 mm 3 mps 636 mmHg 80%
    18:00 +2°C° 0.1 mm 3 mps 636 mmHg 85%
    19:00 +3°C° 0.2 mm 2 mps 636 mmHg 86%
    20:00 +3°C° 0.2 mm 2 mps 636 mmHg 87%
    21:00 +2°C° 0.2 mm 2 mps 636 mmHg 88%
    22:00 +2°C° 0.2 mm 2 mps 636 mmHg 88%
    23:00 +2°C° 0.2 mm 2 mps 636 mmHg 88%

    15 December, Saturday

    Time Temperature Precipitation Wind Pressure Humidity
    00:00 +2°C° 0.2 mm 2 mps 636 mmHg 88%
    01:00 +2°C° 0.2 mm 2 mps 636 mmHg 87%
    02:00 +1°C° 0.2 mm 2 mps 636 mmHg 86%
    03:00 0°C° 0.2 mm 3 mps 636 mmHg 86%
    04:00 -1°C° 0.1 mm 3 mps 636 mmHg 85%
    05:00 -1°C° 0.1 mm 3 mps 636 mmHg 84%
    06:00 -1°C° 0.1 mm 3 mps 636 mmHg 84%
    07:00 0°C° 0.1 mm 3 mps 636 mmHg 78%
    08:00 0°C° 0.1 mm 3 mps 637 mmHg 72%
    09:00 +1°C° 0.1 mm 3 mps 638 mmHg 66%
    10:00 +2°C° 0 mm 3 mps 638 mmHg 61%
    11:00 +3°C° 0 mm 3 mps 638 mmHg 56%
    12:00 +4°C° 0 mm 3 mps 637 mmHg 50%
    13:00 +3°C° 0 mm 3 mps 637 mmHg 52%
    14:00 +3°C° 0 mm 3 mps 637 mmHg 54%
    15:00 +3°C° 0 mm 3 mps 637 mmHg 55%
    16:00 +2°C° 0 mm 2 mps 637 mmHg 61%
    17:00 +1°C° 0 mm 2 mps 637 mmHg 67%
    18:00 -1°C° 0 mm 2 mps 637 mmHg 73%
    19:00 +1°C° 0 mm 1 mps 638 mmHg 74%
    20:00 +1°C° 0 mm 1 mps 638 mmHg 74%
    21:00 +1°C° 0 mm 1 mps 638 mmHg 75%
    22:00 0°C° 0 mm 1 mps 638 mmHg 74%
    23:00 0°C° 0 mm 1 mps 638 mmHg 74%

    16 December, Sunday

    Time Temperature Precipitation Wind Pressure Humidity
    00:00 0°C° 0 mm 1 mps 637 mmHg 74%
    01:00 0°C° 0 mm 1 mps 637 mmHg 74%
    02:00 -2°C° 0 mm 2 mps 637 mmHg 75%
    03:00 -2°C° 0 mm 2 mps 637 mmHg 75%
    04:00 -2°C° 0 mm 2 mps 637 mmHg 75%
    05:00 -2°C° 0 mm 2 mps 637 mmHg 75%
    06:00 -2°C° 0 mm 2 mps 637 mmHg 75%
    07:00 -1°C° 0 mm 2 mps 637 mmHg 70%
    08:00 +2°C° 0 mm 2 mps 637 mmHg 64%
    09:00 +3°C° 0 mm 2 mps 638 mmHg 58%
    10:00 +3°C° 0 mm 3 mps 637 mmHg 55%
    11:00 +4°C° 0 mm 3 mps 637 mmHg 51%
    12:00 +5°C° 0 mm 4 mps 637 mmHg 47%
    13:00 +5°C° 0 mm 4 mps 637 mmHg 49%
    14:00 +5°C° 0 mm 4 mps 636 mmHg 51%
    15:00 +5°C° 0 mm 4 mps 636 mmHg 52%
    16:00 +3°C° 0 mm 3 mps 636 mmHg 59%
    17:00 +2°C° 0 mm 3 mps 636 mmHg 65%
    18:00 +1°C° 0 mm 3 mps 636 mmHg 71%
    19:00 +1°C° 0 mm 3 mps 636 mmHg 71%
    20:00 0°C° 0 mm 3 mps 636 mmHg 71%
    21:00 0°C° 0 mm 3 mps 636 mmHg 70%
    22:00 0°C° 0 mm 3 mps 636 mmHg 71%
    23:00 -1°C° 0 mm 3 mps 636 mmHg 72%

    17 December, Monday

    Time Temperature Precipitation Wind Pressure Humidity
    00:00 -1°C° 0 mm 3 mps 636 mmHg 72%
    01:00 -1°C° 0 mm 3 mps 636 mmHg 76%
    02:00 -1°C° 0 mm 3 mps 636 mmHg 80%
    03:00 -1°C° 0 mm 3 mps 636 mmHg 83%
    04:00 -1°C° 0 mm 3 mps 636 mmHg 85%
    05:00 -1°C° 0 mm 3 mps 636 mmHg 87%
    06:00 -1°C° 0 mm 3 mps 636 mmHg 89%
    07:00 -1°C° 0.1 mm 3 mps 637 mmHg 87%
    08:00 0°C° 0.1 mm 3 mps 637 mmHg 86%
    09:00 0°C° 0.1 mm 3 mps 637 mmHg 84%
    10:00 +1°C° 0.4 mm 3 mps 637 mmHg 83%
    11:00 +1°C° 0.4 mm 3 mps 637 mmHg 83%
    12:00 +1°C° 0.4 mm 3 mps 637 mmHg 82%
    13:00 0°C° 1 mm 4 mps 636 mmHg 83%
    14:00 0°C° 1 mm 4 mps 636 mmHg 84%
    15:00 0°C° 1 mm 4 mps 635 mmHg 85%
    16:00 0°C° 1 mm 4 mps 636 mmHg 87%
    17:00 0°C° 1 mm 4 mps 636 mmHg 88%
    18:00 0°C° 1 mm 4 mps 636 mmHg 89%
    19:00 0°C° 1.2 mm 4 mps 636 mmHg 90%
    20:00 0°C° 1.2 mm 4 mps 636 mmHg 90%
    21:00 0°C° 1.2 mm 4 mps 637 mmHg 91%
    22:00 0°C° 0.9 mm 3 mps 636 mmHg 91%
    23:00 0°C° 0.9 mm 3 mps 636 mmHg 92%
    Show more